Overview Statistics Trail Chart Weather Telemetry Raw packets
 

This is the latest recevied weather packets stored in our database for station/object KG5APU. If no packets are shown the sender has not sent any weather packets the latest 10 day(s).

<< 1 2 3 4 5 6 >>
Time Temp. Humidity Pressure Rain* Wind** Luminosity Snow
1788610890 25.56° C 83% 1014.5 hPa 0 mm - 15 W/m² -
1788610286 25° C 84% 1014.6 hPa 0 mm - 8 W/m² -
1788609680 25° C 84% 1014.8 hPa 0 mm - 3 W/m² -
1788609080 25° C 84% 1014.5 hPa 0 mm - 0 W/m² -
1788608479 25° C 83% 1014.6 hPa 0 mm - 0 W/m² -
1788607875 25.56° C 84% 1014.6 hPa 0 mm - 0 W/m² -
1788607271 25.56° C 84% 1014.8 hPa 0 mm - 0 W/m² -
1788606671 25° C 84% 1014.5 hPa 0 mm - 0 W/m² -
1788606079 25.56° C 82% 1014.4 hPa 0 mm - 0 W/m² -
1788605465 25.56° C 81% 1014.5 hPa 0 mm - 0 W/m² -
1788604861 26.11° C 80% 1014.6 hPa 0 mm - 0 W/m² -
1788604258 26.67° C 79% 1014.6 hPa 0 mm - 0 W/m² -
1788603656 26.67° C 79% 1014.5 hPa 0 mm - 0 W/m² -
1788603052 26.67° C 80% 1014.5 hPa 0 mm - 0 W/m² -
1788602449 26.67° C 80% 1014.3 hPa 0 mm - 0 W/m² -
1788601844 26.67° C 81% 1014.3 hPa 0 mm - 0 W/m² -
1788601244 26.67° C 80% 1014.2 hPa 0 mm - 0 W/m² -
1788600641 26.67° C 79% 1014.2 hPa 0 mm - 0 W/m² -
1788600037 26.67° C 79% 1014.4 hPa 0 mm - 0 W/m² -
1788599436 26.67° C 79% 1014 hPa 0 mm - 0 W/m² -
1788598832 27.22° C 78% 1014.1 hPa 0 mm - 0 W/m² -
1788598226 27.22° C 78% 1014.1 hPa 0 mm - 0 W/m² -
1788597627 27.22° C 77% 1014.2 hPa 0 mm - 0 W/m² -
1788597024 27.78° C 78% 1013.9 hPa 0 mm - 0 W/m² -
1788596421 27.78° C 77% 1013.7 hPa 0 mm - 0 W/m² -

* Rain latest hour (hover to see other rain measurements)
** Current wind speed in m/s (hover to see current wind gust speed)